Civil Air Patrol

Glenn L. Martin Composite Squadron

Welcome to the Glenn L. Martin Composite Squadron Civil Air Patrol

 

We are the official auxiliary of the United States Air Force.

Our 3 main missions are cadet programs, aerospace education and emergency services.

Click each link to learn more about each mission.

 

Here is a short video from National Headquarters about CAP

 

 


 

 
Current METAR for KMTN (Martin State Airport)

KMTN 162354Z 32004KT 10SM SKC 03/M06 A2999

 

Current TAF for KBWI (Baltimore Washington International)

TAF AMD KBWI 162055Z 1621/1724 35008KT P6SM SCT250 FM170200 VRB04KT P6SM FEW200 FM171700 12005KT P6SM BKN060 BKN130 FM172200 13006KT P6SM SCT015 BKN030 OVC050